EW9370 Weather Reports


Display with metric or nautical units.
time (UTC)temp
F
wind
direction
speed
MPH
gust
MPH
rain 1hr
in
rain 24hr
in
rain mn
in
humidity
%
barometer
mb
20190324161553 73 169 3.0 8.0 0.00 0.00 0.00 83 1018.3
20190324160102 73 153 2.0 8.0 0.00 0.00 0.00 84 1018.2
20190324154552 72 148 3.0 7.0 0.00 0.00 0.00 85 1018.2
20190324153037 72 175 1.0 5.0 0.00 0.00 0.00 85 1018.1
20190324151542 72 180 1.0 6.0 0.00 0.00 0.00 86 1017.9
20190324150053 71 173 2.0 6.0 0.00 0.00 0.00 87 1018.0
20190324144551 70 81 1.0 7.0 0.00 0.00 0.00 89 1017.7
20190324143050 70 178 1.0 4.0 0.00 0.00 0.00 89 1017.8
20190324141544 69 123 1.0 4.0 0.00 0.00 0.00 89 1017.6
20190324140020 69 157 0.0 3.0 0.00 0.00 0.00 90 1017.5
20190324134536 69 91 0.0 3.0 0.00 0.00 0.00 90 1017.4
20190324133032 68 88 0.0 3.0 0.00 0.00 0.00 90 1017.2
20190324131523 68 155 0.0 2.0 0.00 0.00 0.00 90 1017.0
20190324130022 68 155 0.0 4.0 0.00 0.00 0.00 90 1017.0
20190324124526 68 145 0.0 3.0 0.00 0.00 0.00 90 1016.9
20190324123011 68 185 0.0 3.0 0.00 0.00 0.00 90 1016.9
20190324121531 68 168 0.0 5.0 0.00 0.00 0.00 90 1016.6
20190324120027 68 164 1.0 4.0 0.00 0.00 0.00 90 1016.5
20190324114507 67 184 0.0 3.0 0.00 0.00 0.00 90 1016.2
20190324113007 67 110 0.0 3.0 0.00 0.00 0.00 90 1016.1
20190324111517 67 156 0.0 3.0 0.00 0.00 0.00 90 1016.0
20190324110006 67 173 0.0 4.0 0.00 0.00 0.00 90 1015.8
20190324104506 67 178 0.0 2.0 0.00 0.00 0.00 89 1015.8
20190324103003 67 188 1.0 3.0 0.00 0.00 0.00 89 1015.6
20190324101502 67 193 1.0 4.0 0.00 0.00 0.00 89 1015.5
20190324100000 67 134 1.0 4.0 0.00 0.00 0.00 89 1015.6
20190324094636 67 118 1.0 4.0 0.00 0.00 0.00 89 1015.4
20190324093206 67 168 1.0 7.0 0.00 0.00 0.00 89 1015.3
20190324091640 67 140 1.0 3.0 0.00 0.00 0.00 89 1015.4
20190324090130 67 169 1.0 4.0 0.00 0.00 0.00 89 1015.6
20190324084646 67 98 1.0 5.0 0.00 0.00 0.00 89 1015.7
20190324083156 67 160 1.0 7.0 0.00 0.00 0.00 89 1015.7
20190324081754 67 173 2.0 8.0 0.00 0.00 0.00 89 1015.7
20190324080121 67 177 2.0 6.0 0.00 0.00 0.00 89 1015.9
20190324074617 66 175 1.0 8.0 0.00 0.00 0.00 89 1016.1
20190324073111 66 190 0.0 3.0 0.00 0.00 0.00 88 1016.3
20190324071638 67 163 0.0 5.0 0.00 0.00 0.00 88 1016.4
20190324070137 67 178 0.0 3.0 0.00 0.00 0.00 88 1016.6
20190324064644 67 169 1.0 3.0 0.00 0.00 0.00 87 1016.7
20190324063134 67 202 2.0 6.0 0.00 0.00 0.00 87 1016.5
20190324061723 68 200 1.0 5.0 0.00 0.00 0.00 86 1016.4
20190324060107 68 178 2.0 8.0 0.00 0.00 0.00 85 1016.6
20190324054648 68 198 3.0 9.0 0.00 0.00 0.00 85 1016.5
20190324053105 69 153 2.0 7.0 0.00 0.00 0.00 84 1016.6
20190324051611 69 164 2.0 9.0 0.00 0.00 0.00 83 1016.8
20190324050057 69 181 2.0 11.0 0.00 0.00 0.00 82 1017.0
20190324044631 69 157 3.0 9.0 0.00 0.00 0.00 82 1017.1
20190324043104 69 186 3.0 9.0 0.00 0.00 0.00 82 1017.4
20190324041539 69 178 3.0 7.0 0.00 0.00 0.00 82 1017.1
20190324040035 69 202 2.0 11.0 0.00 0.00 0.00 82 1016.9
20190324034532 69 144 3.0 10.0 0.00 0.00 0.00 82 1016.7
20190324033032 69 178 1.0 8.0 0.00 0.00 0.00 83 1016.4
20190324031552 69 171 2.0 7.0 0.00 0.00 0.00 83 1016.2
20190324030100 69 91 2.0 7.0 0.00 0.00 0.00 83 1016.4
20190324024533 69 153 3.0 8.0 0.00 0.00 0.00 82 1016.4
20190324023030 69 142 2.0 9.0 0.00 0.00 0.00 82 1016.3
20190324021537 69 141 3.0 9.0 0.00 0.00 0.00 82 1016.1
20190324020026 70 221 4.0 10.0 0.00 0.00 0.00 81 1016.0
20190324014613 70 90 1.0 10.0 0.00 0.00 0.00 81 1016.1
20190324013050 70 86 3.0 11.0 0.00 0.00 0.00 81 1016.1
20190324011537 70 152 2.0 9.0 0.00 0.00 0.00 80 1016.1
20190324010056 71 113 1.0 9.0 0.00 0.00 0.00 80 1016.0
20190324004535 71 173 2.0 9.0 0.00 0.00 0.00 80 1016.2
20190324003030 71 111 3.0 9.0 0.00 0.00 0.00 80 1016.5
20190324001532 71 133 3.0 12.0 0.00 0.00 0.00 79 1016.5
20190324000035 71 175 3.0 11.0 0.00 0.00 0.00 79 1016.2
20190323234549 71 172 3.0 11.0 0.00 0.00 0.00 79 1016.0
20190323233034 71 185 2.0 8.0 0.00 0.00 0.00 78 1016.0
20190323231557 72 93 2.0 8.0 0.00 0.00 0.00 78 1016.0
20190323230039 72 103 2.0 8.0 0.00 0.00 0.00 78 1015.7
20190323224518 72 199 2.0 12.0 0.00 0.00 0.00 78 1015.6
20190323223036 72 101 2.0 7.0 0.00 0.00 0.00 77 1015.5
20190323221524 73 200 3.0 12.0 0.00 0.00 0.00 75 1015.6
20190323220025 73 83 2.0 10.0 0.00 0.00 0.00 75 1015.6
20190323214517 73 121 2.0 9.0 0.00 0.00 0.00 74 1015.7
20190323213038 73 155 2.0 10.0 0.00 0.00 0.00 74 1015.9
20190323211533 74 101 3.0 12.0 0.00 0.00 0.00 72 1015.9
20190323210024 74 118 3.0 15.0 0.00 0.00 0.00 71 1015.8
20190323203017 76 169 3.0 12.0 0.00 0.00 0.00 67 1016.0
20190323201512 78 163 5.0 14.0 0.00 0.00 0.00 64 1016.1
20190323200033 78 173 4.0 15.0 0.00 0.00 0.00 65 1016.2
20190323194505 79 147 4.0 18.0 0.00 0.00 0.00 64 1016.3
20190323193006 79 53 4.0 16.0 0.00 0.00 0.00 64 1016.3
20190323191507 79 75 4.0 15.0 0.00 0.00 0.00 65 1016.5
20190323190002 79 122 5.0 12.0 0.00 0.00 0.00 65 1016.7
20190323184508 79 191 6.0 19.0 0.00 0.00 0.00 62 1016.8
20190323183202 78 173 5.0 13.0 0.00 0.00 0.00 64 1017.1
20190323181722 78 186 6.0 17.0 0.00 0.00 0.00 64 1017.1
20190323180152 77 188 5.0 13.0 0.00 0.00 0.00 65 1017.3
20190323174754 77 122 5.0 13.0 0.00 0.00 0.00 66 1017.2
20190323173341 77 92 5.0 13.0 0.00 0.00 0.00 67 1017.3
20190323171631 77 63 4.0 15.0 0.00 0.00 0.00 68 1017.6
20190323170143 77 190 4.0 14.0 0.00 0.00 0.00 67 1017.9
20190323164824 75 173 5.0 14.0 0.00 0.00 0.00 69 1018.1
20190323163131 76 108 3.0 10.0 0.00 0.00 0.00 70 1018.3